Tracking 28908 objects as of 20-May-2024
HD Live streaming from Space Station
objects crossing your sky now

STARLINK-6337

Track STARLINK-6337 now!
10-day predictions
STARLINK-6337 is classified as:


NORAD ID: 56528
Int'l Code: 2023-065AB
Perigee: 565.6 km
Apogee: 566.9 km
Inclination: 43.0 °
Period: 95.8 minutes
Semi major axis: 6937 km
RCS: Unknown
Launch date: May 14, 2023
Source: United States (US)
Launch site: AIR FORCE EASTERN TEST RANGE (AFETR)
Your satellite tracking list
Your tracking list is empty




NASA's NSSDC Master Catalog

Two Line Element Set (TLE):
1 56528U 23065AB  24140.52229522  .00000225  00000-0  31744-4 0  9994
2 56528  43.0000 191.6582 0000928 299.6654  60.4096 15.02523401 57478
Source of the keplerian elements: AFSPC